Flag for Greece Weather past 2 weeks in Chania, Crete, Greece

Now
75 °F

Clear.


Feels Like: 78 °F
Forecast: 71 / 86 °F
Wind: No wind

Location: Souda Airport

Current Time: Jul 6, 2015 at 11:56:54 PM

Latest Report: Jul 6, 2015 at 11:20 PM


Visibility: 10 mi

Pressure: 29.98 "Hg

Humidity: 57%

Dew point: 59 °F

Location of ChaniaLocation

Historic Weather in Chania — Graph

°F

Chania temperature yesterday

Maximum temperature yesterday: 82 °F (at 4:20 PM)
Minimum temperature yesterday: 68 °F (at 4:50 AM)
Average temperature yesterday: 75 °F

Past Weeks' High & Low Weather Summary

 TemperatureHumidityPressure
High88 °F (Jun 25, 2:50 PM)94% (Jun 22, 9:50 PM)30.09 "Hg (Jun 22, 9:50 PM)
Low64 °F (Jun 24, 1:50 AM)42% (Jun 24, 2:50 PM)29.74 "Hg (Jun 27, 1:20 AM)
Average74 °F68%29.96 "Hg
* Reported Jun 21 10:20 PM — Jul 6 10:20 PM, Chania, Weather by CustomWeather, © 2015

Note: Actual official high and low records may vary slightly from our data, if they occured in-between our weather recording intervals... More about our weather records

Advertising

Chania weather history for previous 24 hours

 ConditionsComfort  
Time TempWeatherWind HumidityBarometerVisibility
10:20 PM
Mon, Jul 6
75 °FClear.No wind61%29.98 "Hg10 mi
9:50 PM77 °FClear.No wind57%29.98 "Hg10 mi
9:20 PM77 °FSunny.No wind57%29.98 "Hg10 mi
8:50 PM77 °FSunny.No wind57%29.98 "Hg10 mi
8:20 PM79 °FSunny.7 mph45%29.98 "Hg10 mi
7:50 PM79 °FSunny.7 mph45%29.98 "Hg10 mi
7:20 PM81 °FSunny.12 mph48%29.98 "Hg10 mi
6:50 PM81 °FSunny.12 mph48%29.98 "Hg10 mi
6:20 PM84 °FSunny.12 mph43%29.98 "Hg10 mi
5:50 PM84 °FSunny.12 mph43%29.98 "Hg10 mi
5:20 PM84 °FPassing clouds.12 mph48%30.01 "HgN/A
4:50 PM84 °FPassing clouds.12 mph48%30.01 "HgN/A
4:20 PM84 °FPassing clouds.14 mph48%30.01 "HgN/A
3:50 PM84 °FPassing clouds.14 mph48%30.01 "HgN/A
3:20 PM84 °FPassing clouds.14 mph48%30.01 "HgN/A
2:50 PM84 °FPassing clouds.14 mph48%30.01 "HgN/A
2:20 PM84 °FPassing clouds.14 mph48%30.01 "HgN/A
1:50 PM84 °FPassing clouds.14 mph48%30.01 "HgN/A
1:20 PM82 °FPassing clouds.8 mph45%30.01 "HgN/A
12:50 PM82 °FPassing clouds.13 mph45%30.01 "HgN/A
12:20 PM82 °FPassing clouds.8 mph51%30.01 "HgN/A
11:50 AM82 °FPassing clouds.12 mph51%30.01 "HgN/A
11:20 AM82 °FSunny.8 mph51%30.01 "Hg10 mi
10:50 AM82 °FSunny.9 mph51%30.01 "Hg10 mi
10:20 AM81 °FSunny.12 mph54%30.01 "Hg10 mi
9:50 AM81 °FSunny.6 mph54%30.01 "Hg10 mi
9:20 AM77 °FSunny.8 mph61%30.01 "Hg10 mi
8:50 AM77 °FSunny.6 mph61%30.01 "Hg10 mi
8:20 AM72 °FSunny.5 mph73%30.01 "Hg10 mi
7:50 AM72 °FSunny.No wind73%30.01 "Hg10 mi
7:20 AM68 °FSunny.No wind83%30.01 "Hg10 mi
6:50 AM68 °FClear.No wind83%30.01 "Hg10 mi
6:20 AM70 °FClear.No wind78%30.01 "Hg10 mi
5:50 AM70 °FClear.No wind78%30.01 "Hg10 mi
5:20 AM68 °FClear.No wind88%30.01 "Hg10 mi
4:50 AM68 °FClear.No wind88%30.01 "Hg10 mi
4:20 AM68 °FClear.No wind88%30.01 "Hg10 mi
3:50 AM68 °FClear.No wind88%30.01 "Hg10 mi
3:20 AM68 °FClear.No wind83%30.01 "Hg10 mi
2:50 AM68 °FClear.No wind88%30.01 "Hg10 mi
2:20 AM68 °FClear.No wind88%30.01 "Hg10 mi
1:50 AM68 °FClear.No wind88%30.01 "Hg10 mi
1:20 AM70 °FClear.No wind83%30.04 "Hg10 mi
12:50 AM70 °FClear.No wind83%30.04 "Hg10 mi
12:20 AM70 °FClear.No wind83%30.04 "Hg10 mi
11:50 PM
Sun, Jul 5
70 °FClear.No wind83%30.04 "Hg10 mi
11:20 PM72 °FClear.No wind65%30.04 "Hg10 mi
Weather by CustomWeather, © 2015

See weather overviewHow to use our weather pages